* Astronomy

Members Login
Username 
 
Password 
    Remember Me  
Post Info TOPIC: Asteroid 2012 VM6


L

Posts: 131433
Date:
Asteroid 2012 VM6
Permalink  
 


Orbital elements:
2012 VM6                                                 Earth MOID = 0.0364 AU
Epoch 2012 Sept. 30.0 TT = JDT 2456200.5                MPC
M  29.30939              (2000.0)            P               Q
n   0.82236437     Peri.   98.55525     +0.82470587     +0.56186110
a   1.1283050      Node   227.28946     -0.54730531     +0.76407718
e   0.1665037      Incl.    5.04324     -0.14253814     +0.31701444
P   1.20           H   25.1           G   0.15           U   7

MPEC 2012 - V32



__________________
Page 1 of 1  sorted by
 
Quick Reply

Please log in to post quick replies.



Create your own FREE Forum
Report Abuse
Powered by ActiveBoard